This is the latest recevied weather packets stored in our database for station/object SR2CPA-13. If no packets are shown the sender has not sent any weather packets the latest 1 day(s).
| Time | Temp. | Humidity | Pressure | Rain* | Wind** | Luminosity | Snow |
|---|---|---|---|---|---|---|---|
| 1777971397 | 17.78° C | 60% | 0 hPa | 0 mm | 0.89 m/s, 55° | - | - |
| 1777970797 | 18.33° C | 59% | 0 hPa | 0 mm | 0 m/s | - | - |
| 1777970177 | 17.78° C | 59% | 0 hPa | 0 mm | 1.79 m/s, 167° | - | - |
| 1777969577 | 17.78° C | 61% | 0 hPa | 0 mm | 0.45 m/s, 264° | - | - |
| 1777968957 | 16.67° C | 64% | 0 hPa | 0 mm | 0.89 m/s, 276° | - | - |
| 1777968357 | 16.11° C | 63% | 0 hPa | 0 mm | 0.45 m/s, 315° | - | - |
| 1777967737 | 16.11° C | 65% | 0 hPa | 0 mm | 0.45 m/s, 23° | - | - |
| 1777967137 | 16.11° C | 66% | 0 hPa | 0 mm | 0.89 m/s, 10° | - | - |
| 1777966517 | 16.11° C | 66% | 0 hPa | 0 mm | 0 m/s | - | - |
| 1777965917 | 15.56° C | 65% | 0 hPa | 0 mm | 0.89 m/s, 111° | - | - |
| 1777965317 | 15.56° C | 64% | 0 hPa | 0 mm | 0.45 m/s, 18° | - | - |
| 1777964716 | 15° C | 63% | 0 hPa | 0 mm | 0.45 m/s, 87° | - | - |
| 1777964117 | 14.44° C | 64% | 0 hPa | 0 mm | 0.89 m/s, 127° | - | - |
| 1777963517 | 14.44° C | 72% | 0 hPa | 0 mm | 0.45 m/s, 36° | - | - |
| 1777962897 | 13.89° C | 74% | 0 hPa | 0 mm | 1.34 m/s, 78° | - | - |
| 1777962297 | 13.89° C | 80% | 0 hPa | 0 mm | 0 m/s | - | - |
| 1777961677 | 13.89° C | 79% | 0 hPa | 0 mm | 0.45 m/s, 296° | - | - |
| 1777961076 | 13.89° C | 80% | 0 hPa | 0 mm | 0.89 m/s, 146° | - | - |
| 1777960457 | 13.33° C | 94% | 0 hPa | 0 mm | 0.45 m/s, 113° | - | - |
| 1777959856 | 13.33° C | 99% | 0 hPa | 0 mm | 0.45 m/s, 292° | - | - |
| 1777959237 | 12.78° C | 99% | 0 hPa | 0 mm | 0 m/s | - | - |
| 1777958636 | 12.78° C | 99% | 0 hPa | 0 mm | 0 m/s | - | - |
| 1777958036 | 11.67° C | 99% | 0 hPa | 0 mm | 1.34 m/s, 59° | - | - |
| 1777957436 | 12.22° C | 99% | 0 hPa | 0 mm | 0 m/s | - | - |
| 1777956836 | 10.56° C | 99% | 0 hPa | 0 mm | 0.45 m/s, 23° | - | - |
* Rain latest hour (hover to see other rain measurements)
** Current wind speed in m/s (hover to see current wind gust speed)